Home > Weather > Creighton > Past weeks

Flag for Canada Past Weather in Creighton, Saskatchewan, Canada — Yesterday and Last 2 Weeks

Now
52 °F

Light rain. Low clouds.


Feels Like: 46 °F
Forecast: 49 / 68 °F
Wind: 18 mph from North

Location: The Pas

Current Time: Jun 26, 2016 at 3:23:16 AM

Latest Report: Jun 26, 2016 at 3:00 AM


Visibility: 10 mi

Pressure: 29.59 "Hg

Humidity: 94%

Dew Point: 50 °F

Location of CreightonLocation

Past Weather in Creighton — Graph

°F

Creighton Temperature Yesterday

Maximum temperature yesterday: 73 °F (at 12:00 AM)
Minimum temperature yesterday: 54 °F (at 11:00 PM)
Average temperature yesterday: 62 °F

High & Low Weather Summary for the Past Weeks

 TemperatureHumidityPressure
High82 °F (Jun 14, 2:00 PM)100% (Jun 25, 7:00 PM)30.20 "Hg (Jun 25, 7:00 PM)
Low39 °F (Jun 11, 4:00 AM)23% (Jun 22, 5:00 PM)29.54 "Hg (Jun 25, 7:00 PM)
Average65 °F61%29.85 "Hg
* Reported Jun 11 2:00 AM — Jun 26 2:00 AM, Creighton, Weather by CustomWeather, © 2016

Note: Actual official high and low records may vary slightly from our data, if they occured in-between our weather recording intervals... More about our weather records

Advertising

Creighton Weather History for the Previous 24 Hours

Scroll right to see more
 ConditionsComfort  
Time TempWeatherWind HumidityBarometerVisibility
2:00 AM
Sun, Jun 26
54 °FLight rain. Low clouds.17 mph94%29.58 "Hg10 mi
1:00 AM54 °FLight rain. Low clouds.15 mph94%29.57 "Hg10 mi
12:00 AM54 °FLight rain. Overcast.17 mph94%29.55 "Hg10 mi
11:00 PM
Sat, Jun 25
54 °FLight rain. Fog.15 mph94%29.57 "Hg1 mi
10:00 PM57 °FRain. Fog.14 mph94%29.56 "Hg1 mi
9:00 PM57 °FSprinkles. Fog.9 mph94%29.57 "Hg1 mi
8:00 PM57 °FThunderstorms. Fog.13 mph100%29.55 "Hg1 mi
7:51 PM57 °FStrong thunderstorms. Fog.7 mph100%29.55 "Hg1 mi
7:00 PM57 °FThunderstorms. Fog.13 mph100%29.54 "Hg2 mi
6:00 PM57 °FThunderstorms. Fog.9 mph94%29.57 "Hg2 mi
5:00 PM59 °FSprinkles. Low clouds.14 mph94%29.57 "Hg15 mi
4:00 PM63 °FSprinkles. Low clouds.10 mph94%29.56 "Hg15 mi
3:00 PM63 °FLow clouds.8 mph94%29.56 "Hg15 mi
2:00 PM63 °FSprinkles. Low clouds.6 mph94%29.56 "Hg12 mi
1:49 PM63 °FRain showers. Fog.9 mph94%29.56 "Hg5 mi
1:00 PM63 °FSprinkles. Low clouds.5 mph88%29.57 "Hg15 mi
12:00 PM64 °FMostly cloudy.8 mph94%29.57 "Hg15 mi
11:00 AM63 °FRain. Low clouds.5 mph94%29.60 "Hg2 mi
10:50 AM63 °FRain. Fog.6 mph94%29.60 "Hg1 mi
10:00 AM63 °FLight rain. Overcast.5 mph94%29.59 "Hg15 mi
9:00 AM64 °FLight rain. Low clouds.6 mph94%29.59 "Hg15 mi
8:00 AM63 °FLight rain. Overcast.6 mph88%29.57 "Hg15 mi
7:51 AM63 °FLight rain. Overcast.No wind88%29.58 "Hg15 mi
7:00 AM63 °FLow clouds.3 mph83%29.57 "Hg15 mi
6:00 AM61 °FOvercast.3 mph88%29.57 "Hg15 mi
5:00 AM59 °FOvercast.No wind88%29.58 "Hg15 mi
4:00 AM59 °FOvercast.3 mph88%29.60 "Hg15 mi
3:00 AM64 °FPassing clouds.2 mph78%29.59 "Hg15 mi
Weather by CustomWeather, © 2016

See weather overviewHow to use our weather pages